Location: Go�ngahuizen
(53.0821°N, 5.8849°E)
Time: 08:43:32
(UTC+00:00)

Mayak - Pass Details

Date: 09 April 2020
Orbit: 581 x 601 km, 97.5° (Epoch: 23 May)

Event Time Altitude Azimuth Distance (km) Brightness Sun altitude
Rises 21:59:26 0° 14° (NNE) 2,827 ? -25.4°
Reaches altitude 10° 22:01:37 10° 16° (NNE) 1,919 ? -25.6°
Enters shadow 22:04:48 51° 25° (NNE) 739 ? -25.8°
